Year,Month,Day,Hour,Minute,Value (Times are PST for temperature in C)
2011,06,21,00,00,11.70
2011,06,21,00,01,11.70
2011,06,21,00,02,11.70
2011,06,21,00,03,11.60
2011,06,21,00,04,11.60
2011,06,21,00,05,11.60
2011,06,21,00,06,11.60
2011,06,21,00,07,11.60
2011,06,21,00,08,11.50
2011,06,21,00,09,11.50
2011,06,21,00,10,11.40
2011,06,21,00,11,11.40
2011,06,21,00,12,11.40
2011,06,21,00,13,11.40
2011,06,21,00,14,11.40
2011,06,21,00,15,11.40
2011,06,21,00,16,11.40
2011,06,21,00,17,11.40
2011,06,21,00,18,11.40
2011,06,21,00,19,11.40
2011,06,21,00,20,11.40
2011,06,21,00,21,11.40
2011,06,21,00,22,11.30
2011,06,21,00,23,11.30
2011,06,21,00,24,11.30
2011,06,21,00,25,11.30
2011,06,21,00,26,11.30
2011,06,21,00,27,11.30
2011,06,21,00,28,11.30
2011,06,21,00,29,11.30
2011,06,21,00,30,11.30
2011,06,21,00,31,11.30
2011,06,21,00,32,11.30
2011,06,21,00,33,11.30
2011,06,21,00,34,11.20
2011,06,21,00,35,11.20
2011,06,21,00,36,11.20
2011,06,21,00,37,11.20
2011,06,21,00,38,11.20
2011,06,21,00,39,11.20
2011,06,21,00,40,11.20
2011,06,21,00,41,11.20
2011,06,21,00,42,11.20
2011,06,21,00,43,11.20
2011,06,21,00,44,11.20
2011,06,21,00,45,11.20
2011,06,21,00,46,11.20
2011,06,21,00,47,11.20
2011,06,21,00,48,11.10
2011,06,21,00,49,11.10
2011,06,21,00,50,11.10
2011,06,21,00,51,11.10
2011,06,21,00,52,11.10
2011,06,21,00,53,11.10
2011,06,21,00,54,11.00
2011,06,21,00,55,11.00
2011,06,21,00,56,11.00
2011,06,21,00,57,10.90
2011,06,21,00,58,10.90
2011,06,21,00,59,10.90
2011,06,21,01,00,10.90
2011,06,21,01,01,10.90
2011,06,21,01,02,10.90
2011,06,21,01,03,10.90
2011,06,21,01,04,10.90
2011,06,21,01,05,10.90
2011,06,21,01,06,10.90
2011,06,21,01,07,10.90
2011,06,21,01,08,10.80
2011,06,21,01,09,10.80
2011,06,21,01,10,10.90
2011,06,21,01,11,10.90
2011,06,21,01,12,10.90
2011,06,21,01,13,10.90
2011,06,21,01,14,10.90
2011,06,21,01,15,10.90
2011,06,21,01,16,10.90
2011,06,21,01,17,10.90
2011,06,21,01,18,10.90
2011,06,21,01,19,10.90
2011,06,21,01,20,10.80
2011,06,21,01,21,10.80
2011,06,21,01,22,10.80
2011,06,21,01,23,10.80
2011,06,21,01,24,10.80
2011,06,21,01,25,10.80
2011,06,21,01,26,10.80
2011,06,21,01,27,10.70
2011,06,21,01,28,10.70
2011,06,21,01,29,10.70
2011,06,21,01,30,10.70
2011,06,21,01,31,10.70
2011,06,21,01,32,10.70
2011,06,21,01,33,10.70
2011,06,21,01,34,10.60
2011,06,21,01,35,10.60
2011,06,21,01,36,10.60
2011,06,21,01,37,10.60
2011,06,21,01,38,10.60
2011,06,21,01,39,10.60
2011,06,21,01,40,10.60
2011,06,21,01,41,10.60
2011,06,21,01,42,10.60
2011,06,21,01,43,10.60
2011,06,21,01,44,10.60
2011,06,21,01,45,10.60
2011,06,21,01,46,10.60
2011,06,21,01,47,10.60
2011,06,21,01,48,10.50
2011,06,21,01,49,10.50
2011,06,21,01,50,10.50
2011,06,21,01,51,10.60
2011,06,21,01,52,10.60
2011,06,21,01,53,10.60
2011,06,21,01,54,10.60
2011,06,21,01,55,10.70
2011,06,21,01,56,10.70
2011,06,21,01,57,10.70
2011,06,21,01,58,10.70
2011,06,21,01,59,10.70
2011,06,21,02,00,10.70
2011,06,21,02,01,10.70
2011,06,21,02,02,10.70
2011,06,21,02,03,10.70
2011,06,21,02,04,10.70
2011,06,21,02,05,10.80
2011,06,21,02,06,10.80
2011,06,21,02,07,10.80
2011,06,21,02,08,10.80
2011,06,21,02,09,10.80
2011,06,21,02,10,10.80
2011,06,21,02,11,10.80
2011,06,21,02,12,10.80
2011,06,21,02,13,10.80
2011,06,21,02,14,10.80
2011,06,21,02,15,10.80
2011,06,21,02,16,10.80
2011,06,21,02,17,10.80
2011,06,21,02,18,10.80
2011,06,21,02,19,10.90
2011,06,21,02,20,10.90
2011,06,21,02,21,10.90
2011,06,21,02,22,10.90
2011,06,21,02,23,10.90
2011,06,21,02,24,10.90
2011,06,21,02,25,11.00
2011,06,21,02,26,11.00
2011,06,21,02,27,11.00
2011,06,21,02,28,11.00
2011,06,21,02,29,11.00
2011,06,21,02,30,11.00
2011,06,21,02,31,11.00
2011,06,21,02,32,11.00
2011,06,21,02,33,11.00
2011,06,21,02,34,11.00
2011,06,21,02,35,11.10
2011,06,21,02,36,11.10
2011,06,21,02,37,11.10
2011,06,21,02,38,11.10
2011,06,21,02,39,11.10
2011,06,21,02,40,11.10
2011,06,21,02,41,11.10
2011,06,21,02,42,11.10
2011,06,21,02,43,11.10
2011,06,21,02,44,11.10
2011,06,21,02,45,11.20
2011,06,21,02,46,11.20
2011,06,21,02,47,11.20
2011,06,21,02,48,11.20
2011,06,21,02,49,11.20
2011,06,21,02,50,11.20
2011,06,21,02,51,11.20
2011,06,21,02,52,11.20
2011,06,21,02,53,11.20
2011,06,21,02,54,11.20
2011,06,21,02,55,11.20
2011,06,21,02,56,11.20
2011,06,21,02,57,11.20
2011,06,21,02,58,11.20
2011,06,21,02,59,11.20
2011,06,21,03,00,11.30
2011,06,21,03,01,11.30
2011,06,21,03,02,11.30
2011,06,21,03,03,11.30
2011,06,21,03,04,11.30
2011,06,21,03,05,11.30
2011,06,21,03,06,11.30
2011,06,21,03,07,11.30
2011,06,21,03,08,11.30
2011,06,21,03,09,11.30
2011,06,21,03,10,11.30
2011,06,21,03,11,11.30
2011,06,21,03,12,11.30
2011,06,21,03,13,11.30
2011,06,21,03,14,11.30
2011,06,21,03,15,11.30
2011,06,21,03,16,11.40
2011,06,21,03,17,11.40
2011,06,21,03,18,11.40
2011,06,21,03,19,11.40
2011,06,21,03,20,11.40
2011,06,21,03,21,11.40
2011,06,21,03,22,11.40
2011,06,21,03,23,11.40
2011,06,21,03,24,11.40
2011,06,21,03,25,11.40
2011,06,21,03,26,11.50
2011,06,21,03,27,11.50
2011,06,21,03,28,11.50
2011,06,21,03,29,11.50
2011,06,21,03,30,11.50
2011,06,21,03,31,11.50
2011,06,21,03,32,11.50
2011,06,21,03,33,11.50
2011,06,21,03,34,11.60
2011,06,21,03,35,11.60
2011,06,21,03,36,11.60
2011,06,21,03,37,11.60
2011,06,21,03,38,11.60
2011,06,21,03,39,11.60
2011,06,21,03,40,11.60
2011,06,21,03,41,11.60
2011,06,21,03,42,11.60
2011,06,21,03,43,11.60
2011,06,21,03,44,11.60
2011,06,21,03,45,11.70
2011,06,21,03,46,11.70
2011,06,21,03,47,11.70
2011,06,21,03,48,11.70
2011,06,21,03,49,11.70
2011,06,21,03,50,11.70
2011,06,21,03,51,11.70
2011,06,21,03,52,11.70
2011,06,21,03,53,11.70
2011,06,21,03,54,11.70
2011,06,21,03,55,11.70
2011,06,21,03,56,11.70
2011,06,21,03,57,11.70
2011,06,21,03,58,11.70
2011,06,21,03,59,11.70
2011,06,21,04,00,11.70
2011,06,21,04,01,11.70
2011,06,21,04,02,11.80
2011,06,21,04,03,11.80
2011,06,21,04,04,11.80
2011,06,21,04,05,11.80
2011,06,21,04,06,11.80
2011,06,21,04,07,11.80
2011,06,21,04,08,11.80
2011,06,21,04,09,11.80
2011,06,21,04,10,11.80
2011,06,21,04,11,11.80
2011,06,21,04,12,11.80
2011,06,21,04,13,11.80
2011,06,21,04,14,11.80
2011,06,21,04,15,11.80
2011,06,21,04,16,11.80
2011,06,21,04,17,11.80
2011,06,21,04,18,11.80
2011,06,21,04,19,11.80
2011,06,21,04,20,11.80
2011,06,21,04,21,11.80
2011,06,21,04,22,11.80
2011,06,21,04,23,11.80
2011,06,21,04,24,11.80
2011,06,21,04,25,11.80
2011,06,21,04,26,11.80
2011,06,21,04,27,11.80
2011,06,21,04,28,11.80
2011,06,21,04,29,11.80
2011,06,21,04,30,11.80
2011,06,21,04,31,11.80
2011,06,21,04,32,11.80
2011,06,21,04,33,11.90
2011,06,21,04,34,11.90
2011,06,21,04,35,11.90
2011,06,21,04,36,11.90
2011,06,21,04,37,11.90
2011,06,21,04,38,11.90
2011,06,21,04,39,11.90
2011,06,21,04,40,11.90
2011,06,21,04,41,11.90
2011,06,21,04,42,11.90
2011,06,21,04,43,11.90
2011,06,21,04,44,11.90
2011,06,21,04,45,11.90
2011,06,21,04,46,11.90
2011,06,21,04,47,11.90
2011,06,21,04,48,11.90
2011,06,21,04,49,11.90
2011,06,21,04,50,11.90
2011,06,21,04,51,11.90
2011,06,21,04,52,11.90
2011,06,21,04,53,11.90
2011,06,21,04,54,11.90
2011,06,21,04,55,11.90
2011,06,21,04,56,11.90
2011,06,21,04,57,11.90
2011,06,21,04,58,11.90
2011,06,21,04,59,11.90
2011,06,21,05,00,11.90
2011,06,21,05,01,11.90
2011,06,21,05,02,11.90
2011,06,21,05,03,11.80
2011,06,21,05,04,11.90
2011,06,21,05,05,11.80
2011,06,21,05,06,11.80
2011,06,21,05,07,11.80
2011,06,21,05,08,11.80
2011,06,21,05,09,11.80
2011,06,21,05,10,11.80
2011,06,21,05,11,11.80
2011,06,21,05,12,11.80
2011,06,21,05,13,11.80
2011,06,21,05,14,11.80
2011,06,21,05,15,11.70
2011,06,21,05,16,11.70
2011,06,21,05,17,11.70
2011,06,21,05,18,11.70
2011,06,21,05,19,11.70
2011,06,21,05,20,11.70
2011,06,21,05,21,11.60
2011,06,21,05,22,11.60
2011,06,21,05,23,11.60
2011,06,21,05,24,11.60
2011,06,21,05,25,11.60
2011,06,21,05,26,11.60
2011,06,21,05,27,11.60
2011,06,21,05,28,11.60
2011,06,21,05,29,11.60
2011,06,21,05,30,11.60
2011,06,21,05,31,11.60
2011,06,21,05,32,11.60
2011,06,21,05,33,11.60
2011,06,21,05,34,11.60
2011,06,21,05,35,11.60
2011,06,21,05,36,11.60
2011,06,21,05,37,11.60
2011,06,21,05,38,11.60
2011,06,21,05,39,11.50
2011,06,21,05,40,11.50
2011,06,21,05,41,11.50
2011,06,21,05,42,11.50
2011,06,21,05,43,11.50
2011,06,21,05,44,11.50
2011,06,21,05,45,11.50
2011,06,21,05,46,11.50
2011,06,21,05,47,11.40
2011,06,21,05,48,11.50
2011,06,21,05,49,11.40
2011,06,21,05,50,11.50
2011,06,21,05,51,11.50
2011,06,21,05,52,11.40
2011,06,21,05,53,11.40
2011,06,21,05,54,11.40
2011,06,21,05,55,11.40
2011,06,21,05,56,11.40
2011,06,21,05,57,11.40
2011,06,21,05,58,11.40
2011,06,21,05,59,11.50
2011,06,21,06,00,11.40
2011,06,21,06,01,11.40
2011,06,21,06,02,11.50
2011,06,21,06,03,11.40
2011,06,21,06,04,11.40
2011,06,21,06,05,11.50
2011,06,21,06,06,11.50
2011,06,21,06,07,11.50
2011,06,21,06,08,11.50
2011,06,21,06,09,11.50
2011,06,21,06,10,11.50
2011,06,21,06,11,11.50
2011,06,21,06,12,11.50
2011,06,21,06,13,11.50
2011,06,21,06,14,11.60
2011,06,21,06,15,11.60
2011,06,21,06,16,11.60
2011,06,21,06,17,11.60
2011,06,21,06,18,11.60
2011,06,21,06,19,11.60
2011,06,21,06,20,11.60
2011,06,21,06,21,11.60
2011,06,21,06,22,11.70
2011,06,21,06,23,11.70
2011,06,21,06,24,11.70
2011,06,21,06,25,11.70
2011,06,21,06,26,11.70
2011,06,21,06,27,11.70
2011,06,21,06,28,11.70
2011,06,21,06,29,11.70
2011,06,21,06,30,11.70
2011,06,21,06,31,11.70
2011,06,21,06,32,11.70
2011,06,21,06,33,11.70
2011,06,21,06,34,11.70
2011,06,21,06,35,11.70
2011,06,21,06,36,11.80
2011,06,21,06,37,11.80
2011,06,21,06,38,11.90
2011,06,21,06,39,11.90
2011,06,21,06,40,11.90
2011,06,21,06,41,11.90
2011,06,21,06,42,11.90
2011,06,21,06,43,11.90
2011,06,21,06,44,12.00
2011,06,21,06,45,12.00
2011,06,21,06,46,12.10
2011,06,21,06,47,12.20
2011,06,21,06,48,12.30
2011,06,21,06,49,12.40
2011,06,21,06,50,12.40
2011,06,21,06,51,12.40
2011,06,21,06,52,12.50
2011,06,21,06,53,12.50
2011,06,21,06,54,12.60
2011,06,21,06,55,12.60
2011,06,21,06,56,12.70
2011,06,21,06,57,12.70
2011,06,21,06,58,12.80
2011,06,21,06,59,12.80
2011,06,21,07,00,12.80
2011,06,21,07,01,12.80
2011,06,21,07,02,12.90
2011,06,21,07,03,13.00
2011,06,21,07,04,13.10
2011,06,21,07,05,13.10
2011,06,21,07,06,13.10
2011,06,21,07,07,13.10
2011,06,21,07,08,13.10
2011,06,21,07,09,13.10
2011,06,21,07,10,13.20
2011,06,21,07,11,13.20
2011,06,21,07,12,13.20
2011,06,21,07,13,13.20
2011,06,21,07,14,13.20
2011,06,21,07,15,13.30
2011,06,21,07,16,13.30
2011,06,21,07,17,13.40
2011,06,21,07,18,13.40
2011,06,21,07,19,13.50
2011,06,21,07,20,13.60
2011,06,21,07,21,13.60
2011,06,21,07,22,13.60
2011,06,21,07,23,13.70
2011,06,21,07,24,13.70
2011,06,21,07,25,13.70
2011,06,21,07,26,13.70
2011,06,21,07,27,13.70
2011,06,21,07,28,13.80
2011,06,21,07,29,13.80
2011,06,21,07,30,13.90
2011,06,21,07,31,13.90
2011,06,21,07,32,13.90
2011,06,21,07,33,14.00
2011,06,21,07,34,14.00
2011,06,21,07,35,14.10
2011,06,21,07,36,14.10
2011,06,21,07,37,14.20
2011,06,21,07,38,14.20
2011,06,21,07,39,14.20
2011,06,21,07,40,14.20
2011,06,21,07,41,14.20
2011,06,21,07,42,14.30
2011,06,21,07,43,14.30
2011,06,21,07,44,14.40
2011,06,21,07,45,14.40
2011,06,21,07,46,14.50
2011,06,21,07,47,14.60
2011,06,21,07,48,14.80
2011,06,21,07,49,14.90
2011,06,21,07,50,15.00
2011,06,21,07,51,15.00
2011,06,21,07,52,15.20
2011,06,21,07,53,15.40
2011,06,21,07,54,15.50
2011,06,21,07,55,15.60
2011,06,21,07,56,15.50
2011,06,21,07,57,15.50
2011,06,21,07,58,15.60
2011,06,21,07,59,15.60
2011,06,21,08,00,15.60
2011,06,21,08,01,15.50
2011,06,21,08,02,15.40
2011,06,21,08,03,15.30
2011,06,21,08,04,15.10
2011,06,21,08,05,15.00
2011,06,21,08,06,15.00
2011,06,21,08,07,15.00
2011,06,21,08,08,15.00
2011,06,21,08,09,15.00
2011,06,21,08,10,15.00
2011,06,21,08,11,15.00
2011,06,21,08,12,15.00
2011,06,21,08,13,15.20
2011,06,21,08,14,15.20
2011,06,21,08,15,15.40
2011,06,21,08,16,15.50
2011,06,21,08,17,15.60
2011,06,21,08,18,15.60
2011,06,21,08,19,15.70
2011,06,21,08,20,15.80
2011,06,21,08,21,15.90
2011,06,21,08,22,16.00
2011,06,21,08,23,16.10
2011,06,21,08,24,16.20
2011,06,21,08,25,16.30
2011,06,21,08,26,16.40
2011,06,21,08,27,16.50
2011,06,21,08,28,16.70
2011,06,21,08,29,16.70
2011,06,21,08,30,16.90
2011,06,21,08,31,17.00
2011,06,21,08,32,17.10
2011,06,21,08,33,17.20
2011,06,21,08,34,17.30
2011,06,21,08,35,17.40
2011,06,21,08,36,17.50
2011,06,21,08,37,17.50
2011,06,21,08,38,17.40
2011,06,21,08,39,17.20
2011,06,21,08,40,17.00
2011,06,21,08,41,16.80
2011,06,21,08,42,16.50
2011,06,21,08,43,16.30
2011,06,21,08,44,16.10
2011,06,21,08,45,16.00
2011,06,21,08,46,15.90
2011,06,21,08,47,15.80
2011,06,21,08,48,15.80
2011,06,21,08,49,15.70
2011,06,21,08,50,15.60
2011,06,21,08,51,15.50
2011,06,21,08,52,15.30
2011,06,21,08,53,15.20
2011,06,21,08,54,15.10
2011,06,21,08,55,15.00
2011,06,21,08,56,15.00
2011,06,21,08,57,15.00
2011,06,21,08,58,15.00
2011,06,21,08,59,15.00
2011,06,21,09,00,15.20
2011,06,21,09,01,15.30
2011,06,21,09,02,15.30
2011,06,21,09,03,15.40
2011,06,21,09,04,15.50
2011,06,21,09,05,15.50
2011,06,21,09,06,15.60
2011,06,21,09,07,15.60
2011,06,21,09,08,15.70
2011,06,21,09,09,15.70
2011,06,21,09,10,15.80
2011,06,21,09,11,15.80
2011,06,21,09,12,15.90
2011,06,21,09,13,16.10
2011,06,21,09,14,16.10
2011,06,21,09,15,16.10
2011,06,21,09,16,16.00
2011,06,21,09,17,16.00
2011,06,21,09,18,15.90
2011,06,21,09,19,15.90
2011,06,21,09,20,16.00
2011,06,21,09,21,16.20
2011,06,21,09,22,16.30
2011,06,21,09,23,16.50
2011,06,21,09,24,16.60
2011,06,21,09,25,16.70
2011,06,21,09,26,16.80
2011,06,21,09,27,16.90
2011,06,21,09,28,16.90
2011,06,21,09,29,16.90
2011,06,21,09,30,16.90
2011,06,21,09,31,16.90
2011,06,21,09,32,16.90
2011,06,21,09,33,16.80
2011,06,21,09,34,16.80
2011,06,21,09,35,16.70
2011,06,21,09,36,16.70
2011,06,21,09,37,16.70
2011,06,21,09,38,16.70
2011,06,21,09,39,16.80
2011,06,21,09,40,16.80
2011,06,21,09,41,16.80
2011,06,21,09,42,16.80
2011,06,21,09,43,16.80
2011,06,21,09,44,16.90
2011,06,21,09,45,17.00
2011,06,21,09,46,17.10
2011,06,21,09,47,17.20
2011,06,21,09,48,17.30
2011,06,21,09,49,17.30
2011,06,21,09,50,17.30
2011,06,21,09,51,17.40
2011,06,21,09,52,17.40
2011,06,21,09,53,17.40
2011,06,21,09,54,17.50
2011,06,21,09,55,17.50
2011,06,21,09,56,17.60
2011,06,21,09,57,17.60
2011,06,21,09,58,17.60
2011,06,21,09,59,17.50
2011,06,21,10,00,17.50
2011,06,21,10,01,17.50
2011,06,21,10,02,17.60
2011,06,21,10,03,17.70
2011,06,21,10,04,17.70
2011,06,21,10,05,17.80
2011,06,21,10,06,17.80
2011,06,21,10,07,17.80
2011,06,21,10,08,17.80
2011,06,21,10,09,17.70
2011,06,21,10,10,17.70
2011,06,21,10,11,17.80
2011,06,21,10,12,17.70
2011,06,21,10,13,17.70
2011,06,21,10,14,17.70
2011,06,21,10,15,17.70
2011,06,21,10,16,17.60
2011,06,21,10,17,17.60
2011,06,21,10,18,17.70
2011,06,21,10,19,17.80
2011,06,21,10,20,17.80
2011,06,21,10,21,17.90
2011,06,21,10,22,17.90
2011,06,21,10,23,17.90
2011,06,21,10,24,17.90
2011,06,21,10,25,17.90
2011,06,21,10,26,18.00
2011,06,21,10,27,18.10
2011,06,21,10,28,18.00
2011,06,21,10,29,18.00
2011,06,21,10,30,18.00
2011,06,21,10,31,18.10
2011,06,21,10,32,18.10
2011,06,21,10,33,18.10
2011,06,21,10,34,18.10
2011,06,21,10,35,18.10
2011,06,21,10,36,18.10
2011,06,21,10,37,18.20
2011,06,21,10,38,18.20
2011,06,21,10,39,18.30
2011,06,21,10,40,18.30
2011,06,21,10,41,18.40
2011,06,21,10,42,18.40
2011,06,21,10,43,18.40
2011,06,21,10,44,18.40
2011,06,21,10,45,18.40
2011,06,21,10,46,18.40
2011,06,21,10,47,18.50
2011,06,21,10,48,18.50
2011,06,21,10,49,18.60
2011,06,21,10,50,18.60
2011,06,21,10,51,18.60
2011,06,21,10,52,18.50
2011,06,21,10,53,18.40
2011,06,21,10,54,18.40
2011,06,21,10,55,18.30
2011,06,21,10,56,18.30
2011,06,21,10,57,18.30
2011,06,21,10,58,18.30
2011,06,21,10,59,18.40
2011,06,21,11,00,18.50
2011,06,21,11,01,18.60
2011,06,21,11,02,18.60
2011,06,21,11,03,18.60
2011,06,21,11,04,18.70
2011,06,21,11,05,18.60
2011,06,21,11,06,18.60
2011,06,21,11,07,18.70
2011,06,21,11,08,18.80
2011,06,21,11,09,18.90
2011,06,21,11,10,18.90
2011,06,21,11,11,18.90
2011,06,21,11,12,19.00
2011,06,21,11,13,19.10
2011,06,21,11,14,19.00
2011,06,21,11,15,18.90
2011,06,21,11,16,18.90
2011,06,21,11,17,18.90
2011,06,21,11,18,19.00
2011,06,21,11,19,19.00
2011,06,21,11,20,19.10
2011,06,21,11,21,19.10
2011,06,21,11,22,19.10
2011,06,21,11,23,19.10
2011,06,21,11,24,19.00
2011,06,21,11,25,19.00
2011,06,21,11,26,19.00
2011,06,21,11,27,18.90
2011,06,21,11,28,18.90
2011,06,21,11,29,18.90
2011,06,21,11,30,18.90
2011,06,21,11,31,18.90
2011,06,21,11,32,18.90
2011,06,21,11,33,18.90
2011,06,21,11,34,18.90
2011,06,21,11,35,19.00
2011,06,21,11,36,19.00
2011,06,21,11,37,19.10
2011,06,21,11,38,19.10
2011,06,21,11,39,19.10
2011,06,21,11,40,19.20
2011,06,21,11,41,19.20
2011,06,21,11,42,19.20
2011,06,21,11,43,19.20
2011,06,21,11,44,19.20
2011,06,21,11,45,19.20
2011,06,21,11,46,19.20
2011,06,21,11,47,19.20
2011,06,21,11,48,19.20
2011,06,21,11,49,19.20
2011,06,21,11,50,19.30
2011,06,21,11,51,19.40
2011,06,21,11,52,19.60
2011,06,21,11,53,19.70
2011,06,21,11,54,19.80
2011,06,21,11,55,19.90
2011,06,21,11,56,20.00
2011,06,21,11,57,20.10
2011,06,21,11,58,20.10
2011,06,21,11,59,20.20
2011,06,21,12,00,20.20
2011,06,21,12,01,20.20
2011,06,21,12,02,20.30
2011,06,21,12,03,20.30
2011,06,21,12,04,20.30
2011,06,21,12,05,20.30
2011,06,21,12,06,20.20
2011,06,21,12,07,20.10
2011,06,21,12,08,20.10
2011,06,21,12,09,20.10
2011,06,21,12,10,20.00
2011,06,21,12,11,20.00
2011,06,21,12,12,20.00
2011,06,21,12,13,20.00
2011,06,21,12,14,20.00
2011,06,21,12,15,19.90
2011,06,21,12,16,19.90
2011,06,21,12,17,19.80
2011,06,21,12,18,19.70
2011,06,21,12,19,19.70
2011,06,21,12,20,19.70
2011,06,21,12,21,19.70
2011,06,21,12,22,19.80
2011,06,21,12,23,19.70
2011,06,21,12,24,19.60
2011,06,21,12,25,19.60
2011,06,21,12,26,19.60
2011,06,21,12,27,19.50
2011,06,21,12,28,19.40
2011,06,21,12,29,19.40
2011,06,21,12,30,19.40
2011,06,21,12,31,19.40
2011,06,21,12,32,19.50
2011,06,21,12,33,19.50
2011,06,21,12,34,19.60
2011,06,21,12,35,19.50
2011,06,21,12,36,19.40
2011,06,21,12,37,19.40
2011,06,21,12,38,19.40
2011,06,21,12,39,19.40
2011,06,21,12,40,19.50
2011,06,21,12,41,19.50
2011,06,21,12,42,19.60
2011,06,21,12,43,19.60
2011,06,21,12,44,19.70
2011,06,21,12,45,19.70
2011,06,21,12,46,19.70
2011,06,21,12,47,19.70
2011,06,21,12,48,19.60
2011,06,21,12,49,19.50
2011,06,21,12,50,19.40
2011,06,21,12,51,19.30
2011,06,21,12,52,19.30
2011,06,21,12,53,19.30
2011,06,21,12,54,19.20
2011,06,21,12,55,19.30
2011,06,21,12,56,19.40
2011,06,21,12,57,19.40
2011,06,21,12,58,19.40
2011,06,21,12,59,19.40
2011,06,21,13,00,19.50
2011,06,21,13,01,19.50
2011,06,21,13,02,19.70
2011,06,21,13,03,19.70
2011,06,21,13,04,19.70
2011,06,21,13,05,19.70
2011,06,21,13,06,19.80
2011,06,21,13,07,19.80
2011,06,21,13,08,19.80
2011,06,21,13,09,19.90
2011,06,21,13,10,20.00
2011,06,21,13,11,20.10
2011,06,21,13,12,20.30
2011,06,21,13,13,20.30
2011,06,21,13,14,20.30
2011,06,21,13,15,20.20
2011,06,21,13,16,20.20
2011,06,21,13,17,20.30
2011,06,21,13,18,20.30
2011,06,21,13,19,20.20
2011,06,21,13,20,20.20
2011,06,21,13,21,20.20
2011,06,21,13,22,20.20
2011,06,21,13,23,20.30
2011,06,21,13,24,20.30
2011,06,21,13,25,20.40
2011,06,21,13,26,20.30
2011,06,21,13,27,20.30
2011,06,21,13,28,20.30
2011,06,21,13,29,20.30
2011,06,21,13,30,20.30
2011,06,21,13,31,20.40
2011,06,21,13,32,20.40
2011,06,21,13,33,20.40
2011,06,21,13,34,20.40
2011,06,21,13,35,20.40
2011,06,21,13,36,20.50
2011,06,21,13,37,20.50
2011,06,21,13,38,20.50
2011,06,21,13,39,20.40
2011,06,21,13,40,20.30
2011,06,21,13,41,20.20
2011,06,21,13,42,20.20
2011,06,21,13,43,20.20
2011,06,21,13,44,20.20
2011,06,21,13,45,20.30
2011,06,21,13,46,20.40
2011,06,21,13,47,20.50
2011,06,21,13,48,20.50
2011,06,21,13,49,20.60
2011,06,21,13,50,20.60
2011,06,21,13,51,20.60
2011,06,21,13,52,20.70
2011,06,21,13,53,20.60
2011,06,21,13,54,20.40
2011,06,21,13,55,20.20
2011,06,21,13,56,20.10
2011,06,21,13,57,20.10
2011,06,21,13,58,20.10
2011,06,21,13,59,20.20
2011,06,21,14,00,20.40
2011,06,21,14,01,20.50
2011,06,21,14,02,20.60
2011,06,21,14,03,20.70
2011,06,21,14,04,20.70
2011,06,21,14,05,20.70
2011,06,21,14,06,20.80
2011,06,21,14,07,20.80
2011,06,21,14,08,20.80
2011,06,21,14,09,20.80
2011,06,21,14,10,20.70
2011,06,21,14,11,20.60
2011,06,21,14,12,20.50
2011,06,21,14,13,20.40
2011,06,21,14,14,20.50
2011,06,21,14,15,20.50
2011,06,21,14,16,20.40
2011,06,21,14,17,20.40
2011,06,21,14,18,20.40
2011,06,21,14,19,20.60
2011,06,21,14,20,20.70
2011,06,21,14,21,20.80
2011,06,21,14,22,20.90
2011,06,21,14,23,20.90
2011,06,21,14,24,20.90
2011,06,21,14,25,20.70
2011,06,21,14,26,20.60
2011,06,21,14,27,20.50
2011,06,21,14,28,20.30
2011,06,21,14,29,20.30
2011,06,21,14,30,20.30
2011,06,21,14,31,20.40
2011,06,21,14,32,20.50
2011,06,21,14,33,20.60
2011,06,21,14,34,20.50
2011,06,21,14,35,20.50
2011,06,21,14,36,20.50
2011,06,21,14,37,20.50
2011,06,21,14,38,20.50
2011,06,21,14,39,20.60
2011,06,21,14,40,20.70
2011,06,21,14,41,20.80
2011,06,21,14,42,20.70
2011,06,21,14,43,20.60
2011,06,21,14,44,20.40
2011,06,21,14,45,20.10
2011,06,21,14,46,20.00
2011,06,21,14,47,19.90
2011,06,21,14,48,19.80
2011,06,21,14,49,19.80
2011,06,21,14,50,19.90
2011,06,21,14,51,20.00
2011,06,21,14,52,20.00
2011,06,21,14,53,20.20
2011,06,21,14,54,20.40
2011,06,21,14,55,20.50
2011,06,21,14,56,20.50
2011,06,21,14,57,20.60
2011,06,21,14,58,20.60
2011,06,21,14,59,20.50
2011,06,21,15,00,20.40
2011,06,21,15,01,20.30
2011,06,21,15,02,20.20
2011,06,21,15,03,20.20
2011,06,21,15,04,20.20
2011,06,21,15,05,20.10
2011,06,21,15,06,20.10
2011,06,21,15,07,20.20
2011,06,21,15,08,20.20
2011,06,21,15,09,20.30
2011,06,21,15,10,20.30
2011,06,21,15,11,20.40
2011,06,21,15,12,20.40
2011,06,21,15,13,20.30
2011,06,21,15,14,20.20
2011,06,21,15,15,20.20
2011,06,21,15,16,20.10
2011,06,21,15,17,20.10
2011,06,21,15,18,20.00
2011,06,21,15,19,20.00
2011,06,21,15,20,19.90
2011,06,21,15,21,20.00
2011,06,21,15,22,20.10
2011,06,21,15,23,20.20
2011,06,21,15,24,20.30
2011,06,21,15,25,20.30
2011,06,21,15,26,20.40
2011,06,21,15,27,20.50
2011,06,21,15,28,20.60
2011,06,21,15,29,20.70
2011,06,21,15,30,20.80
2011,06,21,15,31,20.80
2011,06,21,15,32,20.80
2011,06,21,15,33,20.80
2011,06,21,15,34,20.80
2011,06,21,15,35,20.80
2011,06,21,15,36,20.80
2011,06,21,15,37,20.90
2011,06,21,15,38,20.90
2011,06,21,15,39,20.80
2011,06,21,15,40,20.80
2011,06,21,15,41,20.70
2011,06,21,15,42,20.70
2011,06,21,15,43,20.70
2011,06,21,15,44,20.60
2011,06,21,15,45,20.60
2011,06,21,15,46,20.60
2011,06,21,15,47,20.50
2011,06,21,15,48,20.40
2011,06,21,15,49,20.40
2011,06,21,15,50,20.40
2011,06,21,15,51,20.40
2011,06,21,15,52,20.40
2011,06,21,15,53,20.50
2011,06,21,15,54,20.50
2011,06,21,15,55,20.60
2011,06,21,15,56,20.70
2011,06,21,15,57,20.70
2011,06,21,15,58,20.70
2011,06,21,15,59,20.70
2011,06,21,16,00,20.70
2011,06,21,16,01,20.70
2011,06,21,16,02,20.70
2011,06,21,16,03,20.70
2011,06,21,16,04,20.70
2011,06,21,16,05,20.60
2011,06,21,16,06,20.60
2011,06,21,16,07,20.60
2011,06,21,16,08,20.50
2011,06,21,16,09,20.50
2011,06,21,16,10,20.50
2011,06,21,16,11,20.50
2011,06,21,16,12,20.50
2011,06,21,16,13,20.50
2011,06,21,16,14,20.50
2011,06,21,16,15,20.60
2011,06,21,16,16,20.60
2011,06,21,16,17,20.60
2011,06,21,16,18,20.60
2011,06,21,16,19,20.70
2011,06,21,16,20,20.70
2011,06,21,16,21,20.70
2011,06,21,16,22,20.70
2011,06,21,16,23,20.70
2011,06,21,16,24,20.80
2011,06,21,16,25,20.90
2011,06,21,16,26,20.90
2011,06,21,16,27,20.90
2011,06,21,16,28,20.90
2011,06,21,16,29,20.80
2011,06,21,16,30,20.90
2011,06,21,16,31,20.80
2011,06,21,16,32,20.80
2011,06,21,16,33,20.80
2011,06,21,16,34,20.80
2011,06,21,16,35,20.80
2011,06,21,16,36,20.70
2011,06,21,16,37,20.70
2011,06,21,16,38,20.70
2011,06,21,16,39,20.70
2011,06,21,16,40,20.70
2011,06,21,16,41,20.70
2011,06,21,16,42,20.70
2011,06,21,16,43,20.70
2011,06,21,16,44,20.70
2011,06,21,16,45,20.80
2011,06,21,16,46,20.80
2011,06,21,16,47,20.90
2011,06,21,16,48,20.90
2011,06,21,16,49,20.90
2011,06,21,16,50,20.90
2011,06,21,16,51,21.00
2011,06,21,16,52,20.90
2011,06,21,16,53,20.90
2011,06,21,16,54,21.00
2011,06,21,16,55,21.00
2011,06,21,16,56,21.00
2011,06,21,16,57,21.10
2011,06,21,16,58,21.10
2011,06,21,16,59,21.10
2011,06,21,17,00,21.10
2011,06,21,17,01,21.10
2011,06,21,17,02,21.20
2011,06,21,17,03,21.20
2011,06,21,17,04,21.20
2011,06,21,17,05,21.30
2011,06,21,17,06,21.30
2011,06,21,17,07,21.30
2011,06,21,17,08,21.30
2011,06,21,17,09,21.30
2011,06,21,17,10,21.30
2011,06,21,17,11,21.30
2011,06,21,17,12,21.30
2011,06,21,17,13,21.30
2011,06,21,17,14,21.30
2011,06,21,17,15,21.30
2011,06,21,17,16,21.20
2011,06,21,17,17,21.20
2011,06,21,17,18,21.20
2011,06,21,17,19,21.20